COSMOS 2580 (62216 NORAD) Tracking and Keplerian Element Data

This shows tracking and keplerian element data for the satellite.

Feedback or suggestion? Click here.




ElementValue
Catalog62216
NameCOSMOS 2580
Epoch Orbit853
Epoch Day34.76067678
Epoch Year2025
RAAN182.2752
Inclination67.1447
Eccentricity0.0006219
Argument of Perigee263.7695
Mean Anonmoly96.2681
Mean Motion13.96679758
Decay Rate8E-08
L11 62216U 24230A 25034.76067678 .00000008 00000+0 60215-4 0 9994
L22 62216 67.1447 182.2752 0006219 263.7695 96.2681 13.96679758 8530



Live tracking and technical data element details for COSMOS 2580 (NORAD 62216). COSMOS 2580 can be tracked NOW for your location showing map with azimuth and elevation plus other details from your city location.







IsCatalogInMostPopularTable: catalog: 62216, numindb: 16
Update: records affected: 1



GetName: 62216 COSMOS 2580

Hit Count: updated at: Sat, 24 May 2025 16:37:18 GMT